TimeCDT,TemperatureF,Dew PointF,Humidity,Sea Level PressureIn,VisibilityMPH,Wind Direction,Wind SpeedMPH,Gust SpeedMPH,PrecipitationIn,Events,Conditions,WindDirDegrees,DateUTC
12:53 AM,82.0,55.0,39,29.79,10.0,South,6.9,-,N/A,,Clear,180,2013-08-31 05:53:00
1:53 AM,80.1,55.0,42,29.80,10.0,South,3.5,-,N/A,,Clear,170,2013-08-31 06:53:00
2:53 AM,80.1,55.0,42,29.80,10.0,Calm,Calm,-,N/A,,Clear,0,2013-08-31 07:53:00
3:53 AM,78.1,55.0,45,29.80,10.0,South,6.9,-,N/A,,Clear,170,2013-08-31 08:53:00
4:53 AM,77.0,55.0,47,29.80,10.0,SSW,5.8,-,N/A,,Partly Cloudy,210,2013-08-31 09:53:00
5:53 AM,77.0,55.0,47,29.81,10.0,South,6.9,-,N/A,,Clear,190,2013-08-31 10:53:00
6:53 AM,75.0,55.9,51,29.81,10.0,SW,5.8,-,N/A,,Clear,230,2013-08-31 11:53:00
7:53 AM,75.9,57.0,52,29.83,10.0,SW,4.6,-,N/A,,Clear,220,2013-08-31 12:53:00
8:53 AM,82.9,57.9,42,29.84,10.0,SW,8.1,-,N/A,,Clear,220,2013-08-31 13:53:00
9:53 AM,91.9,57.0,31,29.83,10.0,West,12.7,-,N/A,,Clear,260,2013-08-31 14:53:00
10:53 AM,97.0,57.0,26,29.83,10.0,West,9.2,-,N/A,,Clear,280,2013-08-31 15:53:00
11:53 AM,100.9,55.9,22,29.81,10.0,WSW,12.7,-,N/A,,Clear,250,2013-08-31 16:53:00
12:53 PM,102.0,55.0,21,29.80,10.0,WSW,6.9,19.6,N/A,,Clear,250,2013-08-31 17:53:00
1:53 PM,104.0,52.0,18,29.78,10.0,South,15.0,19.6,N/A,,Clear,190,2013-08-31 18:53:00
2:53 PM,106.0,51.1,16,29.76,10.0,Variable,5.8,-,N/A,,Clear,0,2013-08-31 19:53:00
3:53 PM,105.1,53.1,18,29.74,10.0,SSW,9.2,16.1,N/A,,Clear,210,2013-08-31 20:53:00
4:53 PM,105.1,52.0,17,29.73,10.0,SW,11.5,18.4,N/A,,Clear,220,2013-08-31 21:53:00
5:53 PM,104.0,51.1,17,29.71,10.0,SSW,8.1,18.4,N/A,,Clear,200,2013-08-31 22:53:00
6:53 PM,102.0,51.1,18,29.71,10.0,South,10.4,-,N/A,,Clear,170,2013-08-31 23:53:00
7:53 PM,98.1,52.0,21,29.72,10.0,SSE,9.2,-,N/A,,Clear,150,2013-09-01 00:53:00
8:53 PM,93.9,53.1,25,29.73,10.0,SSE,10.4,-,N/A,,Clear,160,2013-09-01 01:53:00
9:53 PM,91.0,52.0,26,29.74,10.0,South,10.4,-,N/A,,Clear,170,2013-09-01 02:53:00
10:53 PM,86.0,52.0,31,29.73,10.0,SSE,8.1,-,N/A,,Clear,150,2013-09-01 03:53:00
11:53 PM,82.9,53.1,36,29.73,10.0,SSW,6.9,-,N/A,,Clear,200,2013-09-01 04:53:00